Time,TemperatureF,DewpointF,PressureIn,WindDirection,WindDirectionDegrees,WindSpeedMPH,WindSpeedGustMPH,Humidity,HourlyPrecipIn,Conditions,Clouds,dailyrainin,SoftwareType,DateUTC
2013-03-05 00:01:00,35.0,32.0,29.88,NE,45,3.0,4.0,90,-99.99,,,-99.99,,2013-03-05 06:01:00,
2013-03-05 00:11:00,35.0,32.0,29.88,NNE,22,4.0,6.0,90,-99.99,,,-99.99,,2013-03-05 06:11:00,
2013-03-05 00:22:00,35.0,32.0,29.88,NNW,337,4.0,5.0,91,-99.99,,,-99.99,,2013-03-05 06:22:00,
2013-03-05 00:31:00,34.0,32.0,29.89,NNW,337,4.0,6.0,94,-99.99,,,-99.99,,2013-03-05 06:31:00,
2013-03-05 00:41:00,34.0,32.0,29.89,NNW,337,5.0,6.0,93,-99.99,,,-99.99,,2013-03-05 06:41:00,
2013-03-05 00:52:00,34.0,32.0,29.89,NNW,337,6.0,9.0,92,-99.99,,,-99.99,,2013-03-05 06:52:00,
2013-03-05 01:01:00,34.0,32.0,29.90,NNW,337,7.0,11.0,92,-99.99,,,-99.99,,2013-03-05 07:01:00,
2013-03-05 01:11:00,34.0,32.0,29.90,NNW,337,7.0,9.0,93,-99.99,,,-99.99,,2013-03-05 07:11:00,
2013-03-05 01:21:00,34.0,32.0,29.90,NNW,337,7.0,10.0,94,-99.99,,,-99.99,,2013-03-05 07:21:00,
2013-03-05 01:31:00,33.0,32.0,29.90,NNW,337,6.0,8.0,95,-99.99,,,-99.99,,2013-03-05 07:31:00,
2013-03-05 01:41:00,33.0,32.0,29.90,NNW,337,8.0,11.0,95,-99.99,,,-99.99,,2013-03-05 07:41:00,
2013-03-05 01:51:00,33.0,32.0,29.90,NNW,337,9.0,12.0,96,-99.99,,,-99.99,,2013-03-05 07:51:00,
2013-03-05 02:02:00,33.0,32.0,29.90,NNW,337,8.0,11.0,96,-99.99,,,-99.99,,2013-03-05 08:02:00,
2013-03-05 02:11:00,33.0,32.0,29.91,NNW,337,10.0,13.0,96,-99.99,,,-99.99,,2013-03-05 08:11:00,
2013-03-05 02:21:00,33.0,32.0,29.90,NNW,337,10.0,13.0,96,-99.99,,,-99.99,,2013-03-05 08:21:00,
2013-03-05 02:31:00,33.0,32.0,29.90,NNW,337,9.0,12.0,97,-99.99,,,-99.99,,2013-03-05 08:31:00,
2013-03-05 02:41:00,32.0,32.0,29.90,NNW,337,9.0,13.0,97,-99.99,,,-99.99,,2013-03-05 08:41:00,
2013-03-05 02:52:00,32.0,32.0,29.90,NNW,337,10.0,13.0,98,-99.99,,,-99.99,,2013-03-05 08:52:00,
2013-03-05 03:01:00,32.0,32.0,29.90,NNW,337,9.0,13.0,98,-99.99,,,-99.99,,2013-03-05 09:01:00,
2013-03-05 03:11:00,32.0,32.0,29.90,NNW,337,10.0,13.0,98,-99.99,,,-99.99,,2013-03-05 09:11:00,
2013-03-05 03:21:00,32.0,32.0,29.90,NNW,337,10.0,14.0,99,-99.99,,,-99.99,,2013-03-05 09:21:00,
2013-03-05 03:31:00,32.0,32.0,29.90,NNW,337,10.0,13.0,99,-99.99,,,-99.99,,2013-03-05 09:31:00,
2013-03-05 03:42:00,32.0,32.0,29.90,NNW,337,9.0,12.0,99,-99.99,,,-99.99,,2013-03-05 09:42:00,
2013-03-05 03:52:00,32.0,32.0,29.90,NNW,337,10.0,14.0,99,-99.99,,,-99.99,,2013-03-05 09:52:00,
2013-03-05 04:01:00,32.0,32.0,29.91,NW,315,9.0,11.0,99,-99.99,,,-99.99,,2013-03-05 10:01:00,
2013-03-05 04:11:00,32.0,32.0,29.92,NW,315,7.0,11.0,99,-99.99,,,-99.99,,2013-03-05 10:11:00,
2013-03-05 04:21:00,32.0,32.0,29.91,NNW,337,8.0,11.0,99,-99.99,,,-99.99,,2013-03-05 10:21:00,
2013-03-05 04:32:00,32.0,32.0,29.92,NW,315,8.0,12.0,99,-99.99,,,-99.99,,2013-03-05 10:32:00,
2013-03-05 04:42:00,32.0,32.0,29.94,WNW,292,7.0,10.0,100,-99.99,,,-99.99,,2013-03-05 10:42:00,
2013-03-05 04:51:00,32.0,32.0,29.95,WNW,292,9.0,14.0,100,-99.99,,,-99.99,,2013-03-05 10:51:00,
2013-03-05 05:01:00,32.0,32.0,29.95,NW,315,10.0,15.0,100,-99.99,,,-99.99,,2013-03-05 11:01:00,
2013-03-05 05:11:00,31.0,31.0,29.95,NW,315,10.0,14.0,100,-99.99,,,-99.99,,2013-03-05 11:11:00,
2013-03-05 05:22:00,31.0,31.0,29.95,NW,315,10.0,16.0,100,-99.99,,,-99.99,,2013-03-05 11:22:00,
2013-03-05 05:32:00,31.0,31.0,29.95,NW,315,10.0,15.0,100,-99.99,,,-99.99,,2013-03-05 11:32:00,
2013-03-05 05:42:00,31.0,31.0,29.96,NW,315,9.0,13.0,100,-99.99,,,-99.99,,2013-03-05 11:42:00,
2013-03-05 05:52:00,31.0,31.0,29.96,NW,315,9.0,14.0,100,-99.99,,,-99.99,,2013-03-05 11:52:00,
2013-03-05 06:02:00,31.0,31.0,29.96,NW,315,8.0,11.0,100,-99.99,,,-99.99,,2013-03-05 12:02:00,
2013-03-05 06:11:00,31.0,31.0,29.97,WNW,292,8.0,13.0,100,-99.99,,,-99.99,,2013-03-05 12:11:00,
2013-03-05 06:22:00,31.0,31.0,29.98,WNW,292,8.0,12.0,100,-99.99,,,-99.99,,2013-03-05 12:22:00,
2013-03-05 06:32:00,31.0,31.0,29.98,WNW,292,9.0,12.0,100,-99.99,,,-99.99,,2013-03-05 12:32:00,
2013-03-05 06:42:00,31.0,31.0,29.97,NW,315,9.0,13.0,100,-99.99,,,-99.99,,2013-03-05 12:42:00,
2013-03-05 06:52:00,31.0,31.0,29.98,WNW,292,11.0,17.0,100,-99.99,,,-99.99,,2013-03-05 12:52:00,
2013-03-05 07:02:00,32.0,32.0,29.97,WNW,292,11.0,14.0,100,-99.99,,,-99.99,,2013-03-05 13:02:00,
2013-03-05 07:11:00,32.0,32.0,29.97,NW,315,13.0,18.0,100,-99.99,,,-99.99,,2013-03-05 13:11:00,
2013-03-05 07:21:00,32.0,32.0,29.97,NW,315,13.0,20.0,100,-99.99,,,-99.99,,2013-03-05 13:21:00,
2013-03-05 07:32:00,32.0,32.0,29.97,NW,315,15.0,18.0,100,-99.99,,,-99.99,,2013-03-05 13:32:00,
2013-03-05 07:42:00,32.0,32.0,29.97,NW,315,17.0,23.0,100,-99.99,,,-99.99,,2013-03-05 13:42:00,
2013-03-05 07:52:00,32.0,32.0,29.98,NW,315,16.0,20.0,100,-99.99,,,-99.99,,2013-03-05 13:52:00,
2013-03-05 08:02:00,32.0,32.0,29.98,NW,315,16.0,21.0,100,-99.99,,,-99.99,,2013-03-05 14:02:00,
2013-03-05 08:11:00,32.0,32.0,29.98,NW,315,15.0,21.0,100,-99.99,,,-99.99,,2013-03-05 14:11:00,
2013-03-05 08:21:00,32.0,32.0,29.98,NW,315,14.0,18.0,100,-99.99,,,-99.99,,2013-03-05 14:21:00,
2013-03-05 08:32:00,32.0,32.0,29.99,NW,315,12.0,17.0,100,-99.99,,,-99.99,,2013-03-05 14:32:00,
2013-03-05 08:42:00,33.0,33.0,29.99,NW,315,14.0,20.0,100,-99.99,,,-99.99,,2013-03-05 14:42:00,
2013-03-05 08:52:00,33.0,32.0,30.00,NW,315,13.0,17.0,98,-99.99,,,-99.99,,2013-03-05 14:52:00,
2013-03-05 09:01:00,33.0,32.0,30.00,WNW,292,12.0,20.0,97,-99.99,,,-99.99,,2013-03-05 15:01:00,
2013-03-05 09:11:00,33.0,31.0,30.00,WNW,292,17.0,25.0,94,-99.99,,,-99.99,,2013-03-05 15:11:00,
2013-03-05 09:21:00,33.0,30.0,30.01,WNW,292,15.0,22.0,91,-99.99,,,-99.99,,2013-03-05 15:21:00,
2013-03-05 09:32:00,32.0,29.0,30.01,WNW,292,16.0,27.0,87,-99.99,,,-99.99,,2013-03-05 15:32:00,
2013-03-05 09:42:00,32.0,29.0,30.01,WNW,292,15.0,22.0,87,-99.99,,,-99.99,,2013-03-05 15:42:00,
2013-03-05 09:51:00,33.0,29.0,30.01,WNW,292,16.0,25.0,87,-99.99,,,-99.99,,2013-03-05 15:51:00,
2013-03-05 10:01:00,32.0,29.0,30.01,WNW,292,17.0,23.0,86,-99.99,,,-99.99,,2013-03-05 16:01:00,
2013-03-05 10:11:00,31.0,27.0,30.02,WNW,292,18.0,27.0,83,-99.99,,,-99.99,,2013-03-05 16:11:00,
2013-03-05 10:21:00,31.0,26.0,30.02,WNW,292,16.0,22.0,82,-99.99,,,-99.99,,2013-03-05 16:21:00,
2013-03-05 10:32:00,32.0,26.0,30.02,WNW,292,17.0,25.0,80,-99.99,,,-99.99,,2013-03-05 16:32:00,
2013-03-05 10:42:00,32.0,26.0,30.02,WNW,292,16.0,25.0,80,-99.99,,,-99.99,,2013-03-05 16:42:00,
2013-03-05 10:51:00,32.0,26.0,30.02,WNW,292,16.0,23.0,79,-99.99,,,-99.99,,2013-03-05 16:51:00,
2013-03-05 11:01:00,31.0,25.0,30.02,WNW,292,20.0,30.0,79,-99.99,,,-99.99,,2013-03-05 17:01:00,
2013-03-05 11:11:00,31.0,25.0,30.03,WNW,292,17.0,26.0,78,-99.99,,,-99.99,,2013-03-05 17:11:00,
2013-03-05 11:21:00,31.0,25.0,30.03,WNW,292,17.0,24.0,76,-99.99,,,-99.99,,2013-03-05 17:21:00,
2013-03-05 11:32:00,31.0,24.0,30.03,WNW,292,18.0,28.0,76,-99.99,,,-99.99,,2013-03-05 17:32:00,
2013-03-05 11:41:00,31.0,24.0,30.03,WNW,292,16.0,23.0,75,-99.99,,,-99.99,,2013-03-05 17:41:00,
2013-03-05 11:52:00,31.0,25.0,30.03,NW,315,16.0,24.0,76,-99.99,,,-99.99,,2013-03-05 17:52:00,
2013-03-05 12:01:00,31.0,24.0,30.04,NW,315,17.0,26.0,75,-99.99,,,-99.99,,2013-03-05 18:01:00,
2013-03-05 12:11:00,31.0,24.0,30.04,WNW,292,17.0,22.0,74,-99.99,,,-99.99,,2013-03-05 18:11:00,
2013-03-05 12:21:00,31.0,24.0,30.04,WNW,292,14.0,23.0,74,-99.99,,,-99.99,,2013-03-05 18:21:00,
2013-03-05 12:32:00,31.0,23.0,30.04,WNW,292,17.0,25.0,72,-99.99,,,-99.99,,2013-03-05 18:32:00,
2013-03-05 12:42:00,32.0,23.0,30.05,WNW,292,16.0,24.0,72,-99.99,,,-99.99,,2013-03-05 18:42:00,
2013-03-05 12:52:00,31.0,23.0,30.05,WNW,292,17.0,27.0,72,-99.99,,,-99.99,,2013-03-05 18:52:00,
2013-03-05 13:01:00,31.0,23.0,30.05,WNW,292,17.0,26.0,71,-99.99,,,-99.99,,2013-03-05 19:01:00,
2013-03-05 13:11:00,31.0,23.0,30.06,WNW,292,17.0,26.0,72,-99.99,,,-99.99,,2013-03-05 19:11:00,
2013-03-05 13:21:00,30.0,23.0,30.06,WNW,292,20.0,29.0,73,-99.99,,,-99.99,,2013-03-05 19:21:00,
2013-03-05 13:32:00,30.0,23.0,30.06,WNW,292,18.0,25.0,74,-99.99,,,-99.99,,2013-03-05 19:32:00,
2013-03-05 13:42:00,30.0,23.0,30.06,WNW,292,17.0,26.0,76,-99.99,,,-99.99,,2013-03-05 19:42:00,
2013-03-05 13:51:00,30.0,23.0,30.06,WNW,292,16.0,20.0,74,-99.99,,,-99.99,,2013-03-05 19:51:00,
2013-03-05 14:01:00,30.0,23.0,30.06,WNW,292,14.0,20.0,74,-99.99,,,-99.99,,2013-03-05 20:01:00,
2013-03-05 14:11:00,30.0,23.0,30.06,WNW,292,17.0,27.0,74,-99.99,,,-99.99,,2013-03-05 20:11:00,
2013-03-05 14:21:00,30.0,23.0,30.06,WNW,292,15.0,20.0,75,-99.99,,,-99.99,,2013-03-05 20:21:00,
2013-03-05 14:32:00,30.0,23.0,30.06,WNW,292,16.0,25.0,76,-99.99,,,-99.99,,2013-03-05 20:32:00,
2013-03-05 14:41:00,30.0,24.0,30.06,WNW,292,16.0,22.0,76,-99.99,,,-99.99,,2013-03-05 20:41:00,
2013-03-05 14:52:00,31.0,24.0,30.06,WNW,292,16.0,23.0,75,-99.99,,,-99.99,,2013-03-05 20:52:00,
2013-03-05 15:01:00,31.0,24.0,30.06,WNW,292,16.0,21.0,75,-99.99,,,-99.99,,2013-03-05 21:01:00,
2013-03-05 15:11:00,31.0,24.0,30.06,WNW,292,17.0,25.0,76,-99.99,,,-99.99,,2013-03-05 21:11:00,
2013-03-05 15:21:00,31.0,24.0,30.06,WNW,292,18.0,25.0,78,-99.99,,,-99.99,,2013-03-05 21:21:00,
2013-03-05 15:31:00,31.0,25.0,30.06,WNW,292,19.0,26.0,79,-99.99,,,-99.99,,2013-03-05 21:31:00,
2013-03-05 15:41:00,31.0,25.0,30.06,WNW,292,15.0,23.0,79,-99.99,,,-99.99,,2013-03-05 21:41:00,
2013-03-05 15:52:00,31.0,26.0,30.06,WNW,292,13.0,20.0,81,-99.99,,,-99.99,,2013-03-05 21:52:00,
2013-03-05 16:01:00,31.0,26.0,30.07,West,270,18.0,27.0,83,-99.99,,,-99.99,,2013-03-05 22:01:00,
2013-03-05 16:11:00,30.0,27.0,30.07,West,270,19.0,24.0,88,-99.99,,,-99.99,,2013-03-05 22:11:00,
2013-03-05 16:21:00,30.0,27.0,30.07,WNW,292,15.0,21.0,88,-99.99,,,-99.99,,2013-03-05 22:21:00,
2013-03-05 16:32:00,30.0,28.0,30.07,WNW,292,16.0,22.0,91,-99.99,,,-99.99,,2013-03-05 22:32:00,
2013-03-05 16:41:00,29.0,29.0,30.07,WNW,292,17.0,22.0,100,-99.99,,,-99.99,,2013-03-05 22:41:00,
2013-03-05 16:52:00,29.0,29.0,30.08,WNW,292,16.0,23.0,100,-99.99,,,-99.99,,2013-03-05 22:52:00,
2013-03-05 17:01:00,29.0,29.0,30.08,WNW,292,15.0,22.0,100,-99.99,,,-99.99,,2013-03-05 23:01:00,
2013-03-05 17:11:00,29.0,29.0,30.08,WNW,292,18.0,26.0,100,-99.99,,,-99.99,,2013-03-05 23:11:00,
2013-03-05 17:21:00,29.0,29.0,30.09,WNW,292,17.0,23.0,100,-99.99,,,-99.99,,2013-03-05 23:21:00,
2013-03-05 17:32:00,29.0,29.0,30.09,WNW,292,18.0,26.0,98,-99.99,,,-99.99,,2013-03-05 23:32:00,
2013-03-05 17:41:00,30.0,29.0,30.10,WNW,292,15.0,21.0,94,-99.99,,,-99.99,,2013-03-05 23:41:00,
2013-03-05 17:52:00,30.0,28.0,30.10,WNW,292,17.0,25.0,90,-99.99,,,-99.99,,2013-03-05 23:52:00,
2013-03-05 18:01:00,30.0,27.0,30.10,WNW,292,17.0,22.0,88,-99.99,,,-99.99,,2013-03-06 00:01:00,
2013-03-05 18:11:00,30.0,26.0,30.11,WNW,292,14.0,20.0,85,-99.99,,,-99.99,,2013-03-06 00:11:00,
2013-03-05 18:21:00,30.0,25.0,30.11,WNW,292,15.0,21.0,82,-99.99,,,-99.99,,2013-03-06 00:21:00,
2013-03-05 18:32:00,31.0,25.0,30.12,WNW,292,14.0,21.0,79,-99.99,,,-99.99,,2013-03-06 00:32:00,
2013-03-05 18:41:00,31.0,25.0,30.12,WNW,292,17.0,23.0,77,-99.99,,,-99.99,,2013-03-06 00:41:00,
2013-03-05 18:51:00,31.0,25.0,30.13,WNW,292,14.0,25.0,78,-99.99,,,-99.99,,2013-03-06 00:51:00,
2013-03-05 19:01:00,31.0,25.0,30.13,WNW,292,15.0,21.0,79,-99.99,,,-99.99,,2013-03-06 01:01:00,
2013-03-05 19:11:00,31.0,26.0,30.13,WNW,292,18.0,28.0,83,-99.99,,,-99.99,,2013-03-06 01:11:00,
2013-03-05 19:21:00,31.0,27.0,30.13,WNW,292,20.0,28.0,87,-99.99,,,-99.99,,2013-03-06 01:21:00,
2013-03-05 19:32:00,31.0,27.0,30.14,NW,315,17.0,25.0,84,-99.99,,,-99.99,,2013-03-06 01:32:00,
2013-03-05 19:41:00,31.0,27.0,30.14,WNW,292,18.0,28.0,84,-99.99,,,-99.99,,2013-03-06 01:41:00,
2013-03-05 19:51:00,31.0,26.0,30.14,WNW,292,19.0,28.0,83,-99.99,,,-99.99,,2013-03-06 01:51:00,
2013-03-05 20:01:00,31.0,26.0,30.15,WNW,292,18.0,25.0,83,-99.99,,,-99.99,,2013-03-06 02:01:00,
2013-03-05 20:11:00,31.0,27.0,30.15,NW,315,20.0,33.0,85,-99.99,,,-99.99,,2013-03-06 02:11:00,
2013-03-05 20:21:00,31.0,27.0,30.16,NW,315,18.0,26.0,86,-99.99,,,-99.99,,2013-03-06 02:21:00,
2013-03-05 20:31:00,31.0,26.0,30.16,NW,315,14.0,20.0,83,-99.99,,,-99.99,,2013-03-06 02:31:00,
2013-03-05 20:41:00,31.0,26.0,30.16,NW,315,16.0,23.0,84,-99.99,,,-99.99,,2013-03-06 02:41:00,
2013-03-05 20:52:00,31.0,26.0,30.17,NW,315,16.0,23.0,83,-99.99,,,-99.99,,2013-03-06 02:52:00,
2013-03-05 21:01:00,30.0,26.0,30.17,NW,315,20.0,26.0,85,-99.99,,,-99.99,,2013-03-06 03:01:00,
2013-03-05 21:11:00,30.0,26.0,30.17,NW,315,18.0,26.0,85,-99.99,,,-99.99,,2013-03-06 03:11:00,
2013-03-05 21:21:00,30.0,26.0,30.18,NW,315,18.0,25.0,83,-99.99,,,-99.99,,2013-03-06 03:21:00,
2013-03-05 21:31:00,30.0,26.0,30.18,NW,315,19.0,28.0,84,-99.99,,,-99.99,,2013-03-06 03:31:00,
2013-03-05 21:41:00,30.0,25.0,30.19,NW,315,18.0,24.0,82,-99.99,,,-99.99,,2013-03-06 03:41:00,
2013-03-05 21:52:00,30.0,25.0,30.19,NW,315,20.0,29.0,81,-99.99,,,-99.99,,2013-03-06 03:52:00,
2013-03-05 22:02:00,30.0,25.0,30.20,NW,315,17.0,22.0,80,-99.99,,,-99.99,,2013-03-06 04:02:00,
2013-03-05 22:11:00,30.0,26.0,30.20,NW,315,22.0,30.0,83,-99.99,,,-99.99,,2013-03-06 04:11:00,
2013-03-05 22:21:00,30.0,26.0,30.21,NW,315,18.0,24.0,87,-99.99,,,-99.99,,2013-03-06 04:21:00,
2013-03-05 22:32:00,30.0,27.0,30.21,NW,315,16.0,20.0,88,-99.99,,,-99.99,,2013-03-06 04:32:00,
2013-03-05 22:41:00,29.0,27.0,30.22,NW,315,16.0,22.0,92,-99.99,,,-99.99,,2013-03-06 04:41:00,
2013-03-05 22:51:00,29.0,26.0,30.22,NW,315,16.0,21.0,89,-99.99,,,-99.99,,2013-03-06 04:51:00,
2013-03-05 23:01:00,29.0,27.0,30.22,NW,315,16.0,22.0,90,-99.99,,,-99.99,,2013-03-06 05:01:00,
2013-03-05 23:11:00,29.0,27.0,30.23,NW,315,15.0,22.0,93,-99.99,,,-99.99,,2013-03-06 05:11:00,
2013-03-05 23:22:00,29.0,27.0,30.23,NW,315,15.0,20.0,92,-99.99,,,-99.99,,2013-03-06 05:22:00,
2013-03-05 23:32:00,29.0,26.0,30.23,NW,315,16.0,22.0,90,-99.99,,,-99.99,,2013-03-06 05:32:00,
2013-03-05 23:42:00,29.0,25.0,30.23,NW,315,20.0,28.0,88,-99.99,,,-99.99,,2013-03-06 05:42:00,
2013-03-05 23:52:00,29.0,25.0,30.23,NW,315,18.0,24.0,86,-99.99,,,-99.99,,2013-03-06 05:52:00,